This is the latest recevied weather packets stored in our database for station/object KD2PO-13. If no packets are shown the sender has not sent any weather packets the latest 10 day(s).
| Time | Temp. | Humidity | Pressure | Rain* | Wind** | Luminosity | Snow |
|---|---|---|---|---|---|---|---|
| 1777482737 | 12.22° C | 91% | 0 hPa | 0.51 mm | - | - | - |
| 1777482437 | 12.22° C | 90% | 0 hPa | 0.51 mm | - | - | - |
| 1777481836 | 12.22° C | 92% | 0 hPa | 0.51 mm | - | - | - |
| 1777480637 | 11.11° C | 93% | 0 hPa | 0.51 mm | - | - | - |
| 1777480037 | 11.11° C | 92% | 0 hPa | 0.51 mm | - | - | - |
| 1777479736 | 11.11° C | 90% | 0 hPa | 0.51 mm | - | - | - |
| 1777479437 | 11.67° C | 87% | 0 hPa | 0 mm | - | - | - |
| 1777479137 | 11.67° C | 86% | 0 hPa | 0 mm | - | - | - |
| 1777478837 | 12.22° C | 86% | 0 hPa | 0 mm | - | - | - |
| 1777478537 | 12.22° C | 86% | 0 hPa | 0 mm | - | - | - |
| 1777478237 | 12.22° C | 86% | 0 hPa | 0 mm | - | - | - |
| 1777477937 | 12.22° C | 86% | 0 hPa | 0 mm | - | - | - |
| 1777477638 | 12.22° C | 86% | 0 hPa | 0 mm | - | - | - |
| 1777477036 | 12.22° C | 85% | 0 hPa | 0 mm | - | - | - |
| 1777476736 | 12.78° C | 85% | 0 hPa | 0 mm | - | - | - |
| 1777475837 | 12.22° C | 87% | 0 hPa | 0 mm | - | - | - |
| 1777475237 | 11.67° C | 87% | 0 hPa | 0 mm | - | - | - |
| 1777474937 | 11.67° C | 88% | 0 hPa | 0 mm | - | - | - |
| 1777473437 | 11.67° C | 87% | 0 hPa | 0 mm | - | - | - |
| 1777473137 | 11.11° C | 88% | 0 hPa | 0 mm | - | - | - |
| 1777472837 | 11.11° C | 87% | 0 hPa | 0 mm | - | - | - |
| 1777472237 | 11.11° C | 87% | 0 hPa | 0 mm | - | - | - |
| 1777471337 | 11.11° C | 88% | 0 hPa | 0 mm | - | - | - |
| 1777471037 | 11.11° C | 88% | 0 hPa | 0 mm | - | - | - |
| 1777469536 | 11.11° C | 87% | 0 hPa | 0 mm | - | - | - |
* Rain latest hour (hover to see other rain measurements)
** Current wind speed in m/s (hover to see current wind gust speed)